Overview Statistics Trail Chart Weather Telemetry Raw packets
 

This is the latest recevied weather packets stored in our database for station/object KC4JIR. If no packets are shown the sender has not sent any weather packets the latest 10 day(s).

<< 36 37 38 39 40 41 42 >>
Time Temp. Humidity Pressure Rain* Wind** Luminosity Snow
1788364939 32.78° C 68% 1016.8 hPa 0 mm - 823 W/m² -
1788364652 32.78° C 70% 1016.9 hPa 0 mm - 814 W/m² -
1788363426 31.67° C 73% 1017.2 hPa 0 mm - 750 W/m² -
1788363121 31.67° C 73% 1017.1 hPa 0 mm - 750 W/m² -
1788362817 31.67° C 73% 1017.1 hPa 0 mm - 750 W/m² -
1788361293 30° C 76% 1017.2 hPa 0 mm - 677 W/m² -
1788360993 30° C 76% 1017.1 hPa 0 mm - 677 W/m² -
1788360693 30° C 76% 1017.1 hPa 0 mm - 677 W/m² -
1788360389 30° C 80% 1017.1 hPa 0 mm - 639 W/m² -
1788360084 30° C 79% 1017.1 hPa 0 mm - 636 W/m² -
1788359779 30° C 78% 1017.2 hPa 0 mm - 304 W/m² -
1788359475 30° C 79% 1017 hPa 0 mm - 329 W/m² -
1788359170 29.44° C 78% 1017.2 hPa 0 mm - 566 W/m² -
1788358866 29.44° C 80% 1017.2 hPa 0 mm - 517 W/m² -
1788358565 28.89° C 81% 1017.1 hPa 0 mm - 506 W/m² -
1788358261 28.89° C 81% 1016.9 hPa 0 mm - 376 W/m² -
1788357956 28.33° C 83% 1017.3 hPa 0 mm - 151 W/m² -
1788357651 28.33° C 84% 1017.2 hPa 0 mm - 69 W/m² -
1788357350 27.78° C 86% 1016.7 hPa 0 mm - 85 W/m² -
1788357045 27.78° C 88% 1017 hPa 0 mm - 70 W/m² -
1788356740 27.22° C 88% 1016.9 hPa 0 mm - 62 W/m² -
1788356435 27.22° C 90% 1017.1 hPa 0 mm - 58 W/m² -
1788356130 27.22° C 91% 1017.1 hPa 0 mm - 57 W/m² -
1788355830 27.22° C 91% 1016.9 hPa 0 mm - 55 W/m² -
1788355525 27.22° C 91% 1017.2 hPa 0 mm - 54 W/m² -

* Rain latest hour (hover to see other rain measurements)
** Current wind speed in m/s (hover to see current wind gust speed)